Weather History for KHPN - October, 2014

Change the Weather History Date:

Friday, October 24, 2014

  Actual Average Record
Temperature  
Mean Temperature 52 °F -  
Max Temperature 57 °F 56 °F 75 °F (2001)
Min Temperature 45 °F 40 °F 28 °F (2002)
Degree Days  
Heating Degree Days 14    
Growing Degree Days 2 (Base 50)    
Moisture  
Dew Point 44 °F    
Average Humidity 77    
Maximum Humidity 93    
Minimum Humidity 62    
Precipitation  
Precipitation 0.00 in - - ()
Sea Level Pressure  
Sea Level Pressure 29.79 in    
Wind  
Wind Speed 12 mph (NW)    
Max Wind Speed 20 mph    
Max Gust Speed 28 mph    
Visibility 10 miles    
Events Rain    
Averages and records for this station are not official NWS values.
T = Trace of Precipitation, MM = Missing Value Source: NWS Daily Summary

Daily Weather History Graph

Daily Weather History Graph

Search for Another Location

Airport or City:

Trip Planner

Search our weather history database for the weather conditions in past years. The results will help you decide how hot, cold, wet, or windy it might be!

Date:

Astronomy

Oct. 24, 2014 Rise Set
Actual Time 7:16 AM EDT 6:00 PM EDT
Civil Twilight 6:48 AM EDT 6:29 PM EDT
Nautical Twilight 6:16 AM EDT 7:01 PM EDT
Astronomical Twilight 5:44 AM EDT 7:33 PM EDT
Moon 7:53 AM EDT (10/24) 6:38 PM EDT (10/24)
Length of Visible Light 11h 40m
Length of Day
10h 44m
New Moon, 1% of the Moon is Illuminated
Oct 24
New Moon
Oct 30
First Quarter
Nov 6
Full
Nov 14
Last Quarter
Nov 22
New

Hourly Weather History & Observations

Time (EDT) Temp. Dew Point Humidity Pressure Visibility Wind Dir Wind Speed Gust Speed Precip Events Conditions
12:56 AM 50.0 °F 43.0 °F 77% 29.77 in 10.0 mi NNW 19.6 mph 27.6 mph N/A   Mostly Cloudy
1:56 AM 50.0 °F 44.1 °F 80% 29.75 in 10.0 mi NNW 19.6 mph 25.3 mph N/A   Mostly Cloudy
2:56 AM 48.9 °F 44.1 °F 83% 29.75 in 10.0 mi NNW 15.0 mph - N/A   Scattered Clouds
3:56 AM 48.9 °F 44.1 °F 83% 29.77 in 10.0 mi WNW 9.2 mph - N/A   Mostly Cloudy
4:31 AM 48.2 °F 44.6 °F 87% 29.76 in 10.0 mi NW 8.1 mph - N/A   Mostly Cloudy
4:56 AM 48.9 °F 44.1 °F 83% 29.77 in 10.0 mi NW 9.2 mph - N/A   Mostly Cloudy
5:56 AM 48.9 °F 43.0 °F 80% 29.78 in 10.0 mi NW 10.4 mph - 0.00 in Rain Light Rain
6:56 AM 48.9 °F 44.1 °F 83% 29.79 in 10.0 mi NW 8.1 mph - 0.00 in   Light Drizzle
7:56 AM 48.9 °F 44.1 °F 83% 29.81 in 10.0 mi NNW 8.1 mph - 0.00 in   Mostly Cloudy
8:56 AM 48.9 °F 44.1 °F 83% 29.81 in 10.0 mi NW 10.4 mph - 0.00 in   Mostly Cloudy
9:56 AM 51.1 °F 45.0 °F 80% 29.81 in 10.0 mi NW 15.0 mph 18.4 mph N/A   Mostly Cloudy
10:56 AM 54.0 °F 44.1 °F 69% 29.80 in 10.0 mi NW 17.3 mph 24.2 mph N/A   Mostly Cloudy
11:56 AM 55.0 °F 42.1 °F 62% 29.79 in 10.0 mi NW 13.8 mph 24.2 mph N/A   Mostly Cloudy
12:56 PM 54.0 °F 42.1 °F 64% 29.78 in 10.0 mi NW 12.7 mph 24.2 mph N/A   Mostly Cloudy
1:56 PM 55.0 °F 43.0 °F 64% 29.77 in 10.0 mi NW 13.8 mph - N/A   Mostly Cloudy
2:56 PM 55.9 °F 44.1 °F 64% 29.77 in 10.0 mi NNW 11.5 mph - N/A   Mostly Cloudy
3:56 PM 57.0 °F 44.1 °F 62% 29.77 in 10.0 mi NNW 10.4 mph - N/A   Mostly Cloudy
4:56 PM 57.0 °F 44.1 °F 62% 29.78 in 10.0 mi NNE 6.9 mph - N/A   Mostly Cloudy
5:56 PM 55.9 °F 44.1 °F 64% 29.78 in 10.0 mi NNW 4.6 mph - N/A   Mostly Cloudy
6:56 PM 52.0 °F 44.1 °F 74% 29.78 in 10.0 mi NNW 4.6 mph - N/A   Clear
7:56 PM 48.9 °F 45.0 °F 86% 29.80 in 10.0 mi SW 3.5 mph - N/A   Clear
8:56 PM 48.9 °F 44.1 °F 83% 29.82 in 10.0 mi Calm Calm - N/A   Clear
9:56 PM 48.0 °F 45.0 °F 89% 29.83 in 10.0 mi Calm Calm - N/A   Clear
10:56 PM 46.9 °F 45.0 °F 93% 29.84 in 10.0 mi Calm Calm - N/A   Clear
11:56 PM 45.0 °F 42.1 °F 90% 29.84 in 10.0 mi Calm Calm - N/A   Clear